Platteville, WI

12:36 PM CDT on July 24, 2016 (GMT -0500)
Platteville Municipal

Weather History for KPVB - November, 2012

Change the Weather History Date:

Wednesday, November 14, 2012

  Actual Average (KDBQ) Record (KDBQ)
Temperature  
Mean Temperature 40 °F 38 °F  
Max Temperature 48 °F 46 °F 70 °F (1971)
Min Temperature 32 °F 30 °F 5 °F (1916)
Degree Days  
Heating Degree Days 25 27  
Month to date heating degree days 336  
Since 1 July heating degree days 985  
Cooling Degree Days 0 0  
Month to date cooling degree days 0  
Year to date cooling degree days 643  
Moisture  
Dew Point 29 °F    
Average Humidity 70    
Maximum Humidity 81    
Minimum Humidity 54    
Precipitation  
Precipitation 0.00 in 0.08 in 1.11 in (1956)
Month to date precipitation 1.13  
Year to date precipitation 33.23  
Snow  
Snow 0.00 in 0.10 in - ()
Month to date snowfall 0.5  
Since 1 July snowfall 0.5  
Since 1 September snowfall 0.5  
Snow Depth -    
Sea Level Pressure  
Sea Level Pressure 30.36 in    
Wind  
Wind Speed 9 mph (SSE)    
Max Wind Speed 16 mph    
Max Gust Speed 20 mph    
Visibility 10 miles    
Events      
T = Trace of Precipitation, MM = Missing Value Source: NWS Daily Summary

Daily Weather History Graph

Daily Weather History Graph

Search for Another Location

Airport or City:

Trip Planner

Search our weather history database for the weather conditions in past years. The results will help you decide how hot, cold, wet, or windy it might be!

Date:

Astronomy

Nov. 14, 2012 Rise Set
Actual Time 6:52 AM CST 4:39 PM CST
Civil Twilight 6:22 AM CST 5:09 PM CST
Nautical Twilight 5:48 AM CST 5:43 PM CST
Astronomical Twilight 5:14 AM CST 6:17 PM CST
Moon 7:43 AM CST (11/14) 5:26 PM CST (11/14)
Length of Visible Light 10h 47m
Length of Day
9h 46m
New Moon, 1% of the Moon is Illuminated
Nov 14
New Moon
Nov 20
First Quarter
Nov 28
Full
Dec 6
Last Quarter
Dec 13
New

Hourly Weather History & Observations

Time (CST) Temp. Windchill Dew Point Humidity Pressure Visibility Wind Dir Wind Speed Gust Speed Precip Events Conditions
12:15 AM 32.0 °F 26.4 °F 24.8 °F 75% 30.42 in 10.0 mi SSE 5.8 mph - N/A   Mostly Cloudy
12:35 AM 32.0 °F 26.4 °F 24.8 °F 75% 30.41 in 10.0 mi SE 5.8 mph - N/A   Mostly Cloudy
12:55 AM 32.0 °F 24.8 °F 24.8 °F 75% 30.41 in 10.0 mi SSE 8.1 mph - N/A   Overcast
1:15 AM 32.0 °F 27.5 °F 24.8 °F 75% 30.41 in 10.0 mi SSE 4.6 mph - N/A   Mostly Cloudy
1:35 AM 32.0 °F 28.7 °F 23.0 °F 69% 30.41 in 10.0 mi SSE 3.5 mph - N/A   Scattered Clouds
1:55 AM 33.8 °F 26.4 °F 24.8 °F 70% 30.41 in 10.0 mi SE 9.2 mph - N/A   Scattered Clouds
2:15 AM 32.0 °F 25.6 °F 24.8 °F 75% 30.41 in 10.0 mi SE 6.9 mph - N/A   Scattered Clouds
2:35 AM 33.8 °F 29.6 °F 24.8 °F 70% 30.41 in 10.0 mi SSE 4.6 mph - N/A   Mostly Cloudy
2:55 AM 33.8 °F 27.7 °F 24.8 °F 70% 30.41 in 10.0 mi SSE 6.9 mph - N/A   Scattered Clouds
3:15 AM 33.8 °F 27.7 °F 24.8 °F 70% 30.41 in 10.0 mi SSE 6.9 mph - N/A   Scattered Clouds
3:35 AM 33.8 °F 29.6 °F 26.6 °F 75% 30.41 in 10.0 mi SSE 4.6 mph - N/A   Mostly Cloudy
3:55 AM 33.8 °F 27.7 °F 26.6 °F 75% 30.41 in 10.0 mi SE 6.9 mph - N/A   Overcast
4:15 AM 33.8 °F 27.7 °F 26.6 °F 75% 30.41 in 10.0 mi SE 6.9 mph - N/A   Overcast
4:35 AM 33.8 °F 26.4 °F 26.6 °F 75% 30.41 in 10.0 mi SE 9.2 mph - N/A   Overcast
4:55 AM 33.8 °F 26.4 °F 26.6 °F 75% 30.41 in 10.0 mi SE 9.2 mph - N/A   Overcast
5:15 AM 33.8 °F 25.8 °F 26.6 °F 75% 30.40 in 10.0 mi SE 10.4 mph - N/A   Overcast
5:35 AM 33.8 °F 26.4 °F 26.6 °F 75% 30.40 in 10.0 mi SE 9.2 mph - N/A   Overcast
5:55 AM 33.8 °F 25.3 °F 26.6 °F 75% 30.40 in 10.0 mi SSE 11.5 mph - N/A   Overcast
6:15 AM 33.8 °F 25.3 °F 26.6 °F 75% 30.40 in 10.0 mi SSE 11.5 mph - N/A   Overcast
6:35 AM 33.8 °F 25.8 °F 26.6 °F 75% 30.40 in 10.0 mi SSE 10.4 mph - N/A   Mostly Cloudy
6:55 AM 33.8 °F 27.7 °F 26.6 °F 75% 30.40 in 10.0 mi SSE 6.9 mph - N/A   Overcast
7:15 AM 33.8 °F 27.0 °F 26.6 °F 75% 30.40 in 10.0 mi SSE 8.1 mph - N/A   Mostly Cloudy
7:35 AM 33.8 °F 26.4 °F 26.6 °F 75% 30.40 in 10.0 mi SSE 9.2 mph - N/A   Mostly Cloudy
7:55 AM 33.8 °F 25.8 °F 26.6 °F 75% 30.41 in 10.0 mi SSE 10.4 mph - N/A   Scattered Clouds
8:15 AM 33.8 °F 25.8 °F 26.6 °F 75% 30.40 in 10.0 mi SSE 10.4 mph - N/A   Clear
8:55 AM 35.6 °F 26.6 °F 26.6 °F 70% 30.40 in 10.0 mi SSE 13.8 mph - N/A   Scattered Clouds
9:15 AM 35.6 °F 27.1 °F 28.4 °F 75% 30.41 in 10.0 mi South 12.7 mph - N/A   Clear
9:35 AM 37.4 °F 29.3 °F 26.6 °F 65% 30.41 in 10.0 mi South 12.7 mph - N/A   Clear
9:55 AM 37.4 °F 28.5 °F 28.4 °F 70% 30.41 in 10.0 mi South 15.0 mph - N/A   Clear
10:15 AM 39.2 °F 31.2 °F 28.4 °F 65% 30.41 in 10.0 mi South 13.8 mph - N/A   Clear
10:35 AM 41.0 °F 34.3 °F 30.2 °F 65% 30.41 in 10.0 mi South 11.5 mph - N/A   Clear
10:55 AM 41.0 °F 33.5 °F 30.2 °F 65% 30.40 in 10.0 mi South 13.8 mph - N/A   Clear
11:15 AM 42.8 °F 36.2 °F 30.2 °F 61% 30.39 in 10.0 mi South 12.7 mph - N/A   Clear
11:35 AM 44.6 °F 38.4 °F 30.2 °F 57% 30.38 in 10.0 mi South 12.7 mph - N/A   Clear
11:55 AM 44.6 °F 38.8 °F 30.2 °F 57% 30.37 in 10.0 mi South 11.5 mph - N/A   Clear
12:15 PM 44.6 °F 38.4 °F 32.0 °F 61% 30.36 in 10.0 mi SSE 12.7 mph 17.3 mph N/A   Clear
12:55 PM 46.4 °F 40.4 °F 32.0 °F 57% 30.35 in 10.0 mi SSE 13.8 mph - N/A   Clear
1:15 PM 46.4 °F 40.1 °F 32.0 °F 57% 30.34 in 10.0 mi South 15.0 mph 19.6 mph N/A   Clear
1:35 PM 46.4 °F 39.8 °F 32.0 °F 57% 30.34 in 10.0 mi South 16.1 mph - N/A   Clear
1:55 PM 46.4 °F 40.7 °F 32.0 °F 57% 30.34 in 10.0 mi South 12.7 mph - N/A   Clear
2:15 PM 46.4 °F 40.7 °F 32.0 °F 57% 30.33 in 10.0 mi South 12.7 mph - N/A   Clear
2:35 PM 48.2 °F - 32.0 °F 54% 30.33 in 10.0 mi South 11.5 mph 19.6 mph N/A   Clear
2:55 PM 48.2 °F - 32.0 °F 54% 30.33 in 10.0 mi SSE 12.7 mph - N/A   Clear
3:15 PM 48.2 °F - 32.0 °F 54% 30.33 in 10.0 mi SSE 10.4 mph - N/A   Clear
3:35 PM 46.4 °F 41.1 °F 32.0 °F 57% 30.33 in 10.0 mi SSE 11.5 mph - N/A   Clear
3:55 PM 46.4 °F 41.9 °F 32.0 °F 57% 30.33 in 10.0 mi SSE 9.2 mph - N/A   Clear
4:15 PM 44.6 °F 40.2 °F 32.0 °F 61% 30.32 in 10.0 mi SSE 8.1 mph - N/A   Clear
4:35 PM 42.8 °F 37.5 °F 32.0 °F 66% 30.32 in 10.0 mi SSE 9.2 mph - N/A   Clear
4:55 PM 41.0 °F 35.8 °F 32.0 °F 70% 30.32 in 10.0 mi SE 8.1 mph - N/A   Clear
5:15 PM 41.0 °F 35.2 °F 30.2 °F 65% 30.31 in 10.0 mi SE 9.2 mph - N/A   Clear
5:35 PM 41.0 °F 35.2 °F 30.2 °F 65% 30.32 in 10.0 mi SE 9.2 mph - N/A   Clear
5:55 PM 39.2 °F 33.0 °F 30.2 °F 70% 30.32 in 10.0 mi SE 9.2 mph - N/A   Clear
6:15 PM 39.2 °F 33.6 °F 30.2 °F 70% 30.32 in 10.0 mi SE 8.1 mph - N/A   Clear
6:35 PM 37.4 °F 31.4 °F 30.2 °F 75% 30.32 in 10.0 mi SE 8.1 mph - N/A   Clear
6:55 PM 37.4 °F 30.3 °F 30.2 °F 75% 30.32 in 10.0 mi SE 10.4 mph - N/A   Clear
7:15 PM 37.4 °F 30.8 °F 30.2 °F 75% 30.32 in 10.0 mi SE 9.2 mph - N/A   Clear
7:35 PM 37.4 °F 30.3 °F 30.2 °F 75% 30.32 in 10.0 mi SE 10.4 mph - N/A   Clear
7:55 PM 35.6 °F 28.0 °F 30.2 °F 81% 30.31 in 10.0 mi SE 10.4 mph - N/A   Clear
8:15 PM 35.6 °F 28.0 °F 30.2 °F 81% 30.32 in 10.0 mi SE 10.4 mph - N/A   Clear
8:35 PM 35.6 °F 29.2 °F 30.2 °F 81% 30.32 in 10.0 mi SSE 8.1 mph - N/A   Clear
8:55 PM 35.6 °F 28.0 °F 30.2 °F 81% 30.31 in 10.0 mi SSE 10.4 mph - N/A   Clear
9:15 PM 35.6 °F 27.5 °F 30.2 °F 81% 30.31 in 10.0 mi SSE 11.5 mph - N/A   Clear
9:35 PM 35.6 °F 28.6 °F 30.2 °F 81% 30.32 in 10.0 mi SSE 9.2 mph - N/A   Clear
9:55 PM 35.6 °F 28.6 °F 28.4 °F 75% 30.32 in 10.0 mi SSE 9.2 mph - N/A   Mostly Cloudy
10:15 PM 35.6 °F 28.6 °F 28.4 °F 75% 30.31 in 10.0 mi SSE 9.2 mph - N/A   Scattered Clouds
10:35 PM 35.6 °F 29.2 °F 30.2 °F 81% 30.31 in 10.0 mi SSE 8.1 mph - N/A   Clear
10:55 PM 35.6 °F 29.9 °F 30.2 °F 81% 30.32 in 10.0 mi SSE 6.9 mph - N/A   Clear
11:15 PM 35.6 °F 29.9 °F 30.2 °F 81% 30.32 in 10.0 mi SSE 6.9 mph - N/A   Clear
11:35 PM 35.6 °F 30.7 °F 30.2 °F 81% 30.32 in 10.0 mi South 5.8 mph - N/A   Clear
11:55 PM 35.6 °F 29.9 °F 30.2 °F 81% 30.31 in 10.0 mi South 6.9 mph - N/A   Clear